Weather History for KDRO - December, 2012

Change the Weather History Date:

Saturday, December 22, 2012

  Actual Average Record
Temperature  
Mean Temperature 19 °F 25 °F  
Max Temperature 34 °F 38 °F - ()
Min Temperature 4 °F 12 °F - ()
Degree Days  
Heating Degree Days 46 40  
Month to date heating degree days 856 833  
Since 1 July heating degree days 2305 2506  
Cooling Degree Days 0 0  
Month to date cooling degree days 0 0  
Year to date cooling degree days 477 243  
Moisture  
Dew Point 10 °F    
Average Humidity 69    
Maximum Humidity 91    
Minimum Humidity 47    
Precipitation  
Precipitation 0.00 in 0.04 in - ()
Month to date precipitation 0.82 0.72  
Year to date precipitation 7.73 15.62  
Sea Level Pressure  
Sea Level Pressure 30.39 in    
Wind  
Wind Speed 3 mph (NE)    
Max Wind Speed 12 mph    
Max Gust Speed 13 mph    
Visibility 10 miles    
Events      
T = Trace of Precipitation, MM = Missing Value Source: NWS Daily Summary

Daily Weather History Graph

Daily Weather History Graph

Search for Another Location

Airport or City:

Trip Planner

Search our weather history database for the weather conditions in past years. The results will help you decide how hot, cold, wet, or windy it might be!

Date:

Astronomy

Dec. 22, 2012 Rise Set
Actual Time 7:21 AM MST 4:58 PM MST
Civil Twilight 6:52 AM MST 5:27 PM MST
Nautical Twilight 6:19 AM MST 6:00 PM MST
Astronomical Twilight 5:48 AM MST 6:31 PM MST
Moon 1:13 PM MST (12/22) 2:14 AM MST (12/22)
Length of Visible Light 10h 34m
Length of Day
9h 36m
Waxing Gibbous, 74% of the Moon is Illuminated
Dec 22
Waxing Gibbous
Dec 28
Full
Jan 4
Last Quarter
Jan 11
New
Jan 18
First Quarter

Hourly Weather History & Observations

Time (MST) Temp. Windchill Dew Point Humidity Pressure Visibility Wind Dir Wind Speed Gust Speed Precip Events Conditions
12:53 AM 9.0 °F - 6.1 °F 88% 30.44 in 10.0 mi Calm Calm - N/A   Clear
1:53 AM 7.0 °F -1.7 °F 3.9 °F 87% 30.43 in 10.0 mi East 4.6 mph - N/A   Clear
2:53 AM 6.1 °F -0.9 °F 3.0 °F 87% 30.43 in 10.0 mi NE 3.5 mph - N/A   Clear
3:53 AM 9.0 °F 2.4 °F 7.0 °F 92% 30.40 in 10.0 mi NNE 3.5 mph - N/A   Clear
4:53 AM 8.1 °F - 5.0 °F 87% 30.40 in 10.0 mi Calm Calm - N/A   Clear
5:53 AM 6.1 °F -4.3 °F 3.0 °F 87% 30.44 in 10.0 mi ENE 5.8 mph - N/A   Clear
6:53 AM 8.1 °F 1.4 °F 3.9 °F 83% 30.45 in 10.0 mi NE 3.5 mph - N/A   Clear
7:53 AM 10.0 °F 1.8 °F 6.1 °F 84% 30.46 in 10.0 mi East 4.6 mph - N/A   Clear
8:53 AM 12.9 °F - 8.1 °F 81% 30.49 in 10.0 mi Calm Calm - N/A   Clear
9:53 AM 16.0 °F 10.4 °F 10.9 °F 81% 30.48 in 10.0 mi East 3.5 mph - N/A   Clear
10:53 AM 24.1 °F - 12.0 °F 60% 30.44 in 10.0 mi Calm Calm - N/A   Clear
11:53 AM 26.1 °F 21.9 °F 15.1 °F 63% 30.40 in 10.0 mi ENE 3.5 mph - N/A   Clear
12:53 PM 32.0 °F 27.5 °F 17.1 °F 54% 30.33 in 10.0 mi ENE 4.6 mph - N/A   Clear
1:53 PM 32.0 °F - 18.0 °F 56% 30.33 in 10.0 mi Calm Calm - N/A   Clear
2:53 PM 30.0 °F 26.5 °F 18.0 °F 61% 30.34 in 10.0 mi ENE 3.5 mph - N/A   Clear
3:53 PM 28.0 °F 22.8 °F 15.1 °F 58% 30.33 in 10.0 mi NE 4.6 mph - N/A   Clear
4:53 PM 30.9 °F - 12.0 °F 46% 30.31 in 10.0 mi Calm Calm - N/A   Clear
5:53 PM 25.0 °F - 12.9 °F 60% 30.35 in 10.0 mi Calm Calm - N/A   Clear
6:53 PM 21.9 °F 11.0 °F 12.9 °F 68% 30.38 in 10.0 mi North 10.4 mph - N/A   Clear
7:53 PM 21.0 °F 13.4 °F 12.0 °F 68% 30.38 in 10.0 mi NNE 5.8 mph - N/A   Clear
8:53 PM 17.1 °F 8.7 °F 10.0 °F 74% 30.39 in 10.0 mi NNE 5.8 mph - N/A   Clear
9:53 PM 16.0 °F 10.4 °F 8.1 °F 71% 30.38 in 10.0 mi NNE 3.5 mph - N/A   Clear
10:53 PM 16.0 °F 5.3 °F 8.1 °F 71% 30.34 in 10.0 mi North 8.1 mph - N/A   Clear
11:53 PM 9.0 °F 2.4 °F 3.9 °F 80% 30.35 in 10.0 mi North 3.5 mph - N/A   Clear